Starlink 32227

operational
NORAD ID: 60361 Int'l Des: 2024-138 Owner: SPXS Country: US Constellation: starlink
LEOCIRCULAR

Starlink 32227について

説明を読み込み中...

リアルタイム位置

3D地球を読み込み中...

次回通過

高度履歴

Altitude vs Time

uPlot chart will show altitude changes over time

軌道要素

1 60361U 24138G 25307.04248453 -.00000422 00000-0 -21430-5 0 9996
2 60361 53.1560 178.1199 0001201 86.7616 273.3522 15.30182031 71244
Epoch: Nov 3, 2025 • Age: 37 hours

現在のステータス

高度 476.7 km
速度 7.63 km/s
衛星直下点 31.73°N, 74.35°E
打ち上げ日 Aug 4, 2024
運用期間 1.2 years
タイプ internet

技術仕様

分類 Payload
質量 730.00 kg
乾燥質量 700.00 kg
総質量 730.00 kg
長さ 0.30 m
直径 4.10 m
スパン 29.00 m
形状 Box + pan
製造者 SPXS
バスタイプ Starlink V2M
フェーズステータス In Orbit
所有者/国 SPXS/US

大規模コンステレーション

Loading constellations...